Raleigh-Durham Airport, NC

12:47 AM EDT on July 26, 2017 (GMT -0400)
Raleigh-Durham International

Weather History for KRDU - April, 2013

Change the Weather History Date:

Friday, April 12, 2013

  Actual Average Record
Temperature  
Mean Temperature 72 °F 59 °F  
Max Temperature 80 °F 72 °F 94 °F (1930)
Min Temperature 63 °F 47 °F 26 °F (1973)
Degree Days  
Heating Degree Days 0 7  
Month to date heating degree days 96 98  
Since 1 July heating degree days 3157 3094  
Cooling Degree Days 7 1  
Month to date cooling degree days 27 12  
Year to date cooling degree days 29 24  
Growing Degree Days 23 (Base 50)    
Moisture  
Dew Point 62 °F    
Average Humidity 65    
Maximum Humidity 87    
Minimum Humidity 42    
Precipitation  
Precipitation 1.04 in 0.10 in 1.65 in (1959)
Month to date precipitation 1.81 1.25  
Year to date precipitation 11.94 12.09  
Snow  
Snow 0.00 in 0.00 in T in (1918)
Month to date snowfall T 0.1  
Since 1 July snowfall 1.7 6.1  
Snow Depth 0.00 in    
Sea Level Pressure  
Sea Level Pressure 29.72 in    
Wind  
Wind Speed 12 mph (SW)    
Max Wind Speed 24 mph    
Max Gust Speed 33 mph    
Visibility 8 miles    
Events Rain    
T = Trace of Precipitation, MM = Missing Value Source: NWS Daily Summary

Daily Weather History Graph

Daily Weather History Graph

Search for Another Location

Airport or City:

Trip Planner

Search our weather history database for the weather conditions in past years. The results will help you decide how hot, cold, wet, or windy it might be!

Date:

Astronomy

Apr. 12, 2013 Rise Set
Actual Time 6:45 AM EDT 7:46 PM EDT
Civil Twilight 6:19 AM EDT 8:12 PM EDT
Nautical Twilight 5:48 AM EDT 8:43 PM EDT
Astronomical Twilight 5:16 AM EDT 9:16 PM EDT
Moon 7:58 AM EDT (4/12) 10:10 PM EDT (4/12)
Length of Visible Light 13h 52m
Length of Day
13h 00m
Waxing Crescent, 5% of the Moon is Illuminated
Apr 12
Waxing Crescent
Apr 18
First Quarter
Apr 25
Full
May 2
Last Quarter
May 9
New

Hourly Weather History & Observations

Time (EDT) Temp. Heat Index Dew Point Humidity Pressure Visibility Wind Dir Wind Speed Gust Speed Precip Events Conditions
12:04 AM 71.6 °F - 64.4 °F 78% 29.82 in 9.0 mi South 18.4 mph 26.5 mph N/A   Mostly Cloudy
12:51 AM 71.1 °F - 64.0 °F 78% 29.81 in 9.0 mi SSW 11.5 mph 25.3 mph N/A   Mostly Cloudy
1:51 AM 71.1 °F - 64.0 °F 78% 29.79 in 9.0 mi SSW 16.1 mph 25.3 mph N/A   Mostly Cloudy
2:51 AM 71.1 °F - 64.0 °F 78% 29.76 in 9.0 mi SSW 17.3 mph 28.8 mph N/A   Mostly Cloudy
3:51 AM 71.1 °F - 63.0 °F 75% 29.74 in 9.0 mi South 17.3 mph 24.2 mph N/A   Mostly Cloudy
4:51 AM 71.1 °F - 63.0 °F 75% 29.73 in 9.0 mi South 18.4 mph 33.4 mph N/A   Overcast
5:13 AM 69.8 °F - 62.6 °F 78% 29.75 in 1.0 mi SSW 15.0 mph 23.0 mph 0.00 in Rain Heavy Rain
5:23 AM 69.8 °F - 64.4 °F 83% 29.75 in 5.0 mi South 16.1 mph 24.2 mph 0.04 in Rain Rain
5:51 AM 68.0 °F - 64.9 °F 90% 29.71 in 10.0 mi South 13.8 mph - 0.09 in Rain Light Rain
6:05 AM 68.0 °F - 64.4 °F 88% 29.73 in 3.0 mi South 11.5 mph 19.6 mph 0.00 in Rain Rain
6:51 AM 68.0 °F - 64.0 °F 87% 29.73 in 7.0 mi SW 12.7 mph 19.6 mph 0.02 in Rain Light Rain
6:57 AM 66.2 °F - 62.6 °F 88% 29.75 in 1.0 mi SW 21.9 mph 33.4 mph 0.02 in Rain Heavy Rain
7:27 AM 66.2 °F - 64.4 °F 94% 29.76 in 4.0 mi West 10.4 mph 19.6 mph 0.76 in Rain Rain
7:51 AM 66.9 °F - 64.0 °F 90% 29.74 in 10.0 mi SSW 8.1 mph - 0.84 in   Overcast
8:51 AM 68.0 °F - 64.9 °F 90% 29.73 in 10.0 mi SSW 11.5 mph 19.6 mph 0.00 in   Mostly Cloudy
9:51 AM 69.1 °F - 64.9 °F 87% 29.72 in 10.0 mi SSW 16.1 mph 23.0 mph N/A   Overcast
10:51 AM 73.0 °F - 66.9 °F 81% 29.71 in 10.0 mi SSW 16.1 mph 23.0 mph N/A   Mostly Cloudy
11:51 AM 73.0 °F - 64.9 °F 76% 29.71 in 10.0 mi SSW 18.4 mph 25.3 mph N/A   Mostly Cloudy
12:51 PM 71.1 °F - 66.9 °F 87% 29.70 in 10.0 mi WSW 6.9 mph - 0.09 in   Mostly Cloudy
1:51 PM 73.0 °F - 66.9 °F 81% 29.68 in 10.0 mi SW 11.5 mph - 0.00 in   Mostly Cloudy
2:51 PM 77.0 °F - 68.0 °F 74% 29.66 in 10.0 mi SW 12.7 mph - N/A   Mostly Cloudy
3:51 PM 78.1 °F - 63.0 °F 60% 29.63 in 10.0 mi WSW 13.8 mph 25.3 mph N/A   Mostly Cloudy
4:51 PM 80.1 °F 81.5 °F 63.0 °F 56% 29.60 in 10.0 mi SW 18.4 mph 26.5 mph N/A   Mostly Cloudy
5:51 PM 79.0 °F - 60.1 °F 52% 29.60 in 10.0 mi SW 18.4 mph 28.8 mph N/A   Scattered Clouds
6:51 PM 77.0 °F - 57.0 °F 50% 29.62 in 10.0 mi SW 13.8 mph - N/A   Partly Cloudy
7:51 PM 75.0 °F - 55.9 °F 51% 29.64 in 10.0 mi SW 11.5 mph - N/A   Scattered Clouds
8:51 PM 71.1 °F - 55.0 °F 57% 29.66 in 10.0 mi SW 10.4 mph - N/A   Scattered Clouds
9:51 PM 70.0 °F - 53.1 °F 55% 29.69 in 10.0 mi WSW 5.8 mph - N/A   Partly Cloudy
10:51 PM 66.9 °F - 53.1 °F 61% 29.72 in 10.0 mi Calm Calm - N/A   Partly Cloudy
11:51 PM 66.9 °F - 42.1 °F 40% 29.76 in 10.0 mi Calm Calm - N/A   Scattered Clouds